Tracking 17147 objects as of 3-July-2015
HD Live streaming from Space Station

COSMOS 2251 DEB

Track COSMOS 2251 DEB now!
10-day predictions
COSMOS 2251 DEB is classified as:


NORAD ID: 35448
Int'l Code: 1993-036AKS
Perigee: 758.1 km
Apogee: 778.3 km
Inclination: 73.9 °
Period: 100.1 minutes
Semi major axis: 7139 km
RCS: 0.0138 m2 (small)
Launch date: June 16, 1993
Source: Commonwealth of Independent States (former USSR) (CIS)

Note: This is SATELLITE DEBRIS
Your satellite tracking list
Your tracking list is empty





NASA's NSSDC Master Catalog

Two Line Element Set (TLE):
1 35448U 93036AKS 15181.57823483  .00000711  00000-0  23780-3 0  9993
2 35448 073.9099 033.1035 0014121 288.0621 101.2219 14.39223745323244

Source of the keplerian elements: AFSPC

N2YO: 355